Home > Weather > Aschaffenburg > Past weeks

Flag for Germany Weather for the Past 2 Weeks in Aschaffenburg, Bavaria, Germany

Now
43 °F

Partly sunny.


Feels Like: 38 °F
Forecast: 34 / 44 °F
Wind: 8 mph from East

Location: Frankfurt-M-Flughafen Airport

Current Time: Feb 12, 2016 at 5:44:09 PM

Latest Report: Feb 12, 2016 at 5:20 PM


Visibility: N/A

Pressure: 29.42 "Hg

Humidity: 61%

Dew point: 30 °F

Location of AschaffenburgLocation

Historic Weather in Aschaffenburg — Graph

°F

Aschaffenburg Temperature Yesterday

Maximum temperature yesterday: 45 °F (at 2:20 PM)
Minimum temperature yesterday: 36 °F (at 10:20 PM)
Average temperature yesterday: 40 °F

High & Low Weather Summary for the Past Weeks

 TemperatureHumidityPressure
High57 °F (Feb 1, 3:50 AM)100% (Jan 29, 2:20 AM)30.39 "Hg (Jan 29, 2:20 AM)
Low28 °F (Jan 29, 4:50 AM)54% (Jan 29, 3:50 PM)29.03 "Hg (Feb 9, 5:50 PM)
Average44 °F81%29.90 "Hg
* Reported Jan 28 4:20 PM — Feb 12 4:20 PM, Aschaffenburg, Weather by CustomWeather, © 2016

Note: Actual official high and low records may vary slightly from our data, if they occured in-between our weather recording intervals... More about our weather records

Advertising

Aschaffenburg Weather History for the Previous 24 Hours

 ConditionsComfort  
Time TempWeatherWind HumidityBarometerVisibility
4:20 PM
Fri, Feb 12
43 °FBroken clouds.9 mph66%29.45 "HgN/A
3:50 PM43 °FScattered clouds.10 mph61%29.45 "HgN/A
3:20 PM43 °FScattered clouds.13 mph61%29.45 "HgN/A
2:50 PM43 °FScattered clouds.8 mph61%29.47 "HgN/A
2:20 PM43 °FScattered clouds.8 mph66%29.47 "HgN/A
1:50 PM41 °FScattered clouds.5 mph70%29.50 "HgN/A
1:20 PM41 °FBroken clouds.5 mph70%29.53 "HgN/A
12:50 PM41 °FPartly sunny.5 mph70%29.53 "HgN/A
12:20 PM39 °FPartly sunny.3 mph81%29.56 "HgN/A
11:50 AM39 °FPartly sunny.2 mph81%29.56 "HgN/A
11:20 AM37 °FBroken clouds.3 mph87%29.59 "HgN/A
10:50 AM36 °FPartly sunny.3 mph93%29.59 "HgN/A
10:20 AM36 °FPartly sunny.5 mph93%29.62 "HgN/A
9:50 AM34 °FPartly sunny.2 mph100%29.62 "HgN/A
9:20 AM34 °FLight rain. Partly sunny.2 mph93%29.62 "Hg4 mi
8:50 AM32 °FBroken clouds.1 mph100%29.65 "Hg4 mi
8:20 AM32 °FPassing clouds.3 mph93%29.65 "Hg4 mi
7:50 AM30 °FPassing clouds.2 mph100%29.65 "Hg4 mi
7:20 AM32 °FFog.6 mph93%29.65 "Hg5 mi
6:20 AM30 °FSnow. Light fog.3 mph100%29.68 "HgN/A
5:50 AM32 °FFog.3 mph93%29.68 "HgN/A
5:20 AM34 °FPassing clouds.5 mph93%29.68 "HgN/A
4:50 AM36 °FPassing clouds.5 mph93%29.68 "HgN/A
4:20 AM34 °FPassing clouds.3 mph100%29.68 "HgN/A
3:50 AM36 °FPassing clouds.2 mph93%29.68 "HgN/A
3:20 AM36 °FLight rain. Passing clouds.2 mph93%29.68 "HgN/A
2:50 AM34 °FLight rain. Passing clouds.3 mph100%29.68 "HgN/A
2:20 AM34 °FPassing clouds.1 mph100%29.68 "HgN/A
1:50 AM36 °FLight rain. Partly cloudy.No wind93%29.71 "HgN/A
1:20 AM36 °FLight rain. Partly cloudy.3 mph93%29.71 "HgN/A
12:50 AM36 °FPassing clouds.2 mph93%29.71 "HgN/A
12:20 AM36 °FPassing clouds.1 mph93%29.71 "HgN/A
11:50 PM
Thu, Feb 11
36 °FPassing clouds.2 mph87%29.71 "HgN/A
10:50 PM36 °FPassing clouds.6 mph93%29.71 "HgN/A
10:20 PM36 °FClear.7 mph93%29.71 "Hg10 mi
9:50 PM37 °FClear.5 mph87%29.71 "Hg10 mi
9:20 PM37 °FClear.6 mph87%29.71 "Hg10 mi
8:50 PM37 °FClear.7 mph87%29.71 "Hg10 mi
8:20 PM37 °FClear.7 mph87%29.71 "Hg10 mi
7:50 PM37 °FPartly cloudy.7 mph87%29.71 "HgN/A
7:20 PM37 °FPassing clouds.6 mph87%29.71 "HgN/A
6:50 PM39 °FPassing clouds.6 mph81%29.71 "HgN/A
6:20 PM39 °FPartly cloudy.7 mph81%29.71 "HgN/A
5:50 PM39 °FPassing clouds.9 mph81%29.71 "HgN/A
5:20 PM41 °FBroken clouds.10 mph76%29.71 "HgN/A
Weather by CustomWeather, © 2016

See weather overviewHow to use our weather pages